Grand Junction, CO

7:55 AM MDT on October 17, 2019 (GMT -0600)
Walker

Weather History for KGJT - March, 2019

Change the Weather History Date:

Sunday, March 3, 2019

  Actual Average Record
Temperature  
Mean Temperature 40 °F 40 °F  
Max Temperature 45 °F 52 °F 71 °F (2009)
Min Temperature 35 °F 29 °F 6 °F (2002)
Degree Days  
Heating Degree Days 25 24  
Month to date heating degree days 65 74  
Since 1 July heating degree days 4520 4453  
Cooling Degree Days 0 0  
Month to date cooling degree days 0 0  
Year to date cooling degree days 0 0  
Moisture  
Dew Point 35 °F    
Average Humidity 82    
Maximum Humidity 100    
Minimum Humidity 64    
Precipitation  
Precipitation 0.04 in 0.02 in 0.60 in (1961)
Month to date precipitation 0.72 0.07  
Year to date precipitation 2.16 1.19  
Snow  
Snow 0.00 in 0.00 in 6.10 in (1948)
Month to date snowfall 0.0 0.2  
Since 1 July snowfall 17.4 15.7  
Snow Depth 0.00 in    
Sea Level Pressure  
Sea Level Pressure 29.88 in    
Wind  
Wind Speed 5 mph (NNW)    
Max Wind Speed 17 mph    
Max Gust Speed 20 mph    
Visibility 10 miles    
Events Rain    
T = Trace of Precipitation, MM = Missing Value Source: NWS Daily Summary

Daily Weather History Graph

Daily Weather History Graph

Search for Another Location

Airport or City:

Astronomy

Mar. 03, 2019 Rise Set
Actual Time 6:43 AM MST 6:08 PM MST
Civil Twilight 6:17 AM MST 6:35 PM MST
Nautical Twilight 5:46 AM MST 7:06 PM MST
Astronomical Twilight 5:15 AM MST 7:37 PM MST
Moon 5:21 AM MST (3/3) 3:31 PM MST (3/3)
Length of Visible Light 12h 18m
Length of Day
11h 24m
Waning Crescent, 7% of the Moon is Illuminated
Mar 3
Waning Crescent
Mar 6
New
Mar 14
First Quarter
Mar 20
Full
Mar 27
Last Quarter

Hourly Weather History & Observations

Time (MST) Temp. Windchill Dew Point Humidity Pressure Visibility Wind Dir Wind Speed Gust Speed Precip Events Conditions
12:53 AM 36.0 °F - 34.0 °F 93% 29.83 in 10.0 mi Calm Calm - 0.00 in   Overcast
1:53 AM 36.0 °F - 35.1 °F 97% 29.85 in 9.0 mi Calm Calm - N/A   Overcast
2:13 AM 36.0 °F 33.3 °F 35.1 °F 97% 29.91 in 10.0 mi South 3.5 mph - N/A   Overcast
2:53 AM 36.0 °F - 35.1 °F 97% 29.88 in 10.0 mi Calm Calm - N/A   Overcast
3:10 AM 36.0 °F - 35.1 °F 97% 29.91 in 10.0 mi Calm Calm - N/A   Overcast
3:25 AM 36.0 °F 31.1 °F 35.1 °F 97% 29.91 in 10.0 mi ENE 5.8 mph - N/A   Overcast
3:53 AM 36.0 °F 30.3 °F 35.1 °F 97% 29.89 in 8.0 mi East 6.9 mph - N/A   Overcast
4:53 AM 36.0 °F - 35.1 °F 97% 29.90 in 10.0 mi Calm Calm - N/A   Overcast
5:53 AM 36.0 °F - 34.0 °F 93% 29.91 in 10.0 mi Calm Calm - N/A   Overcast
6:53 AM 36.0 °F 29.6 °F 34.0 °F 93% 29.90 in 10.0 mi SE 8.1 mph - N/A   Overcast
7:53 AM 36.0 °F 32.1 °F 34.0 °F 93% 29.92 in 9.0 mi East 4.6 mph - 0.01 in Rain Light Rain
8:53 AM 39.0 °F 34.8 °F 35.1 °F 86% 29.92 in 10.0 mi East 5.8 mph - 0.00 in   Overcast
9:53 AM 39.9 °F 37.8 °F 34.0 °F 79% 29.91 in 10.0 mi SSE 3.5 mph - 0.00 in   Overcast
10:11 AM 39.9 °F 36.7 °F 35.1 °F 83% 29.90 in 6.0 mi Variable 4.6 mph - 0.01 in Rain Light Rain
10:49 AM 41.0 °F 36.4 °F 35.6 °F 81% 29.89 in 10.0 mi North 6.9 mph - 0.02 in   Overcast
10:53 AM 41.0 °F 35.8 °F 36.0 °F 82% 29.88 in 10.0 mi North 8.1 mph - 0.02 in   Overcast
11:29 AM 43.0 °F 40.3 °F 37.9 °F 82% 29.89 in 10.0 mi West 4.6 mph - N/A   Overcast
11:37 AM 43.0 °F 39.5 °F 37.9 °F 82% 29.89 in 10.0 mi WNW 5.8 mph - N/A   Overcast
11:48 AM 42.8 °F 39.3 °F 37.4 °F 81% 29.89 in 10.0 mi WNW 5.8 mph - N/A   Overcast
11:53 AM 42.1 °F 39.2 °F 37.0 °F 82% 29.87 in 10.0 mi WNW 4.6 mph - N/A   Overcast
12:03 PM 42.1 °F 37.7 °F 37.0 °F 82% 29.89 in 10.0 mi NW 6.9 mph - N/A   Overcast
12:26 PM 42.1 °F 37.7 °F 37.9 °F 85% 29.88 in 10.0 mi WNW 6.9 mph - 0.00 in Rain Light Rain
12:53 PM 41.0 °F 34.7 °F 37.0 °F 86% 29.87 in 10.0 mi WNW 10.4 mph - 0.00 in Rain Light Rain
1:04 PM 41.0 °F 33.1 °F 37.0 °F 86% 29.88 in 10.0 mi WNW 15.0 mph - 0.00 in Rain Light Rain
1:19 PM 41.0 °F 34.3 °F 37.9 °F 89% 29.88 in 9.0 mi NW 11.5 mph - 0.00 in Rain Light Rain
1:39 PM 41.0 °F 35.2 °F 37.9 °F 89% 29.88 in 10.0 mi WNW 9.2 mph - 0.01 in Rain Light Rain
1:53 PM 41.0 °F 36.4 °F 37.0 °F 86% 29.86 in 10.0 mi NW 6.9 mph - 0.01 in   Overcast
2:08 PM 42.1 °F 38.4 °F 37.0 °F 82% 29.87 in 10.0 mi NW 5.8 mph - N/A   Overcast
2:33 PM 43.0 °F 37.7 °F 37.9 °F 82% 29.87 in 10.0 mi NW 9.2 mph - 0.00 in   Overcast
2:53 PM 43.0 °F 39.5 °F 37.9 °F 82% 29.84 in 10.0 mi WNW 5.8 mph - 0.00 in   Overcast
3:53 PM 44.1 °F 40.1 °F 39.0 °F 82% 29.84 in 10.0 mi NW 6.9 mph - 0.00 in Rain Light Rain
4:53 PM 43.0 °F 39.5 °F 37.9 °F 82% 29.85 in 10.0 mi West 5.8 mph - 0.00 in   Overcast
5:05 PM 43.0 °F 39.5 °F 37.9 °F 82% 29.86 in 10.0 mi NW 5.8 mph - N/A   Overcast
5:40 PM 43.0 °F - 37.9 °F 82% 29.86 in 10.0 mi Calm Calm - N/A   Mostly Cloudy
5:53 PM 43.0 °F - 37.9 °F 82% 29.84 in 10.0 mi Calm Calm - N/A   Mostly Cloudy
6:53 PM 41.0 °F 37.1 °F 33.1 °F 73% 29.88 in 10.0 mi ENE 5.8 mph - N/A   Mostly Cloudy
7:21 PM 39.9 °F 33.4 °F 33.1 °F 77% 29.90 in 10.0 mi NE 10.4 mph - N/A   Mostly Cloudy
7:31 PM 39.9 °F 32.5 °F 32.0 °F 73% 29.90 in 10.0 mi NE 12.7 mph - N/A   Mostly Cloudy
7:53 PM 39.0 °F 33.4 °F 32.0 °F 76% 29.89 in 10.0 mi NE 8.1 mph - N/A   Partly Cloudy
8:53 PM 39.0 °F 31.8 °F 30.0 °F 70% 29.89 in 10.0 mi NE 11.5 mph - N/A   Overcast
9:53 PM 39.0 °F 36.8 °F 28.0 °F 65% 29.91 in 10.0 mi Variable 3.5 mph - N/A   Mostly Cloudy
10:53 PM 37.9 °F 33.5 °F 27.0 °F 65% 29.91 in 10.0 mi SW 5.8 mph - N/A   Mostly Cloudy
11:53 PM 37.0 °F 31.6 °F 28.9 °F 73% 29.91 in 10.0 mi NNE 6.9 mph - N/A   Mostly Cloudy